CZ-6A DEB, 54953

Orbit data source: Space-Track

CZ-6A DEB, 54953 is space debris in SSO originally from a launch on Fri, 11 Nov 2022 UTC launched from the Taiyaun Space Center, China (TSC). Debris objects in space refer to the collection of defunct objects orbiting the Earth. Examples of debris include non-operational satellites, rocket bodies, and fragments generated from explosions, collisions, or faulty payload assembly.

Loading next visibility...
Identifier
54953, 2022-151SS
Orbit
SSO
Country
Flag of CNCN / PRC
Related business
Manufacturer
SAST
Mission
Spacecraft
Bus & Motor
Unknown
Mass
Unknown
Launch date (UTC)
2022-11-11 (3 years ago)
Launch vehicle
Unknown
Launch site
Taiyaun Space Center, China (TSC)
Object type
Payload
Rocket body
Debris
Shape & HBR
Unknown shape, 0.1 m
Radar Cross Section
Small (<0.1 m²)

Expand to show TLE details & history
Last TLE update: 12 hours ago

TLE from 12 hours ago
0 CZ-6A DEB
1 54953U 22151SS  26130.06537140  .00002649  00000-0  60081-3 0  9994
2 54953  98.5469 174.7487 0080328  34.8232 325.8184 14.54969780184108
Epoch: 2026-05-10T01:34Z
TLE epoch observation values (Epoch: 2026-05-10T01:34:08.088Z)
Latitude
-0.00002°
Longitude
-76.6588°
Altitude
665.468 km
Speed
7.549 km/s
True Right ascension
11h 38m 59s
True Declination
0° 00' 00"
Sunlit
Object was in full shadow at epoch
Visualization orbit readout
Latitude
Unknown
Longitude
Unknown
Altitude
Unknown
Speed
Unknown
Apparent Right ascension
Unknown
Apparent Declination
Unknown
Sunlit
N/A
Visualization observer readout
Local Sidereal Time
22:09:01
Azimuth
Unknown
Elevation
Unknown
Doppler factor
Unknown
Orbital elements
Apogee altitude
763.477 km
Perigee altitude
649.657 km
Semi-major axis
7,084.704 km
Eccentricity
0.00803
Inclination
98.5469°
RAAN
174.7487°
Arg. of periapsis
34.8232°
True anomaly
325.29693°
Mean anomaly
325.8184°
Eccentric anomaly
325.5581°
Mean motion
3.63966 °/min
Orbital period
98.91 mins
BSTAR
0.00060081
Loading maneuver chart data...
Computing Atmospheric mass density...
Loading historical data...
Loading historical data...
Loading historical data...
Loading historical data...
Loading historical data...
Loading historical data...
Loading historical data...

Documentation

Showing up to 5 results
|